Weather History for Oakland, MD

Change the Weather History Date:

Sunday, March 24, 2013

  Actual Average (KMGW) Record (KMGW)
Temperature  
Mean Temperature 27 °F 45 °F  
Max Temperature 30 °F 55 °F 77 °F (1949)
Min Temperature 24 °F 35 °F 14 °F (2014)
Degree Days  
Heating Degree Days 38 20  
Month to date heating degree days 579  
Since 1 July heating degree days 4468  
Cooling Degree Days 0 0  
Month to date cooling degree days 0  
Year to date cooling degree days 0  
Moisture  
Dew Point 21 °F    
Average Humidity 79    
Maximum Humidity 100    
Minimum Humidity 59    
Precipitation  
Precipitation 0.00 in 0.12 in 0.73 in (1969)
Month to date precipitation 2.78  
Year to date precipitation 8.19  
Sea Level Pressure  
Sea Level Pressure 29.69 in    
Wind  
Wind Speed 11 mph (ESE)    
Max Wind Speed 28 mph    
Max Gust Speed 38 mph    
Visibility 7 miles    
Events Fog    
T = Trace of Precipitation, MM = Missing Value Source: NWS Daily Summary

Daily Weather History Graph

Daily Weather History Graph

Search for Another Location

Airport:

Trip Planner

Search our weather history database for the weather conditions in past years. The results will help you decide how hot, cold, wet, or windy it might be!

Date:

Astronomy

Mar. 24, 2013 Rise Set
Actual Time 7:14 AM EDT 7:33 PM EDT
Civil Twilight 6:47 AM EDT 8:00 PM EDT
Nautical Twilight 6:15 AM EDT 8:32 PM EDT
Astronomical Twilight 5:43 AM EDT 9:04 PM EDT
Moon 5:00 PM EDT (3/24) 5:22 AM EDT (3/24)
Length of Visible Light 13h 13m
Length of Day
12h 19m
Waxing Gibbous, 91% of the Moon is Illuminated
Mar 24
Waxing Gibbous
Mar 27
Full
Apr 3
Last Quarter
Apr 10
New
Apr 18
First Quarter

Hourly Weather History & Observations

Time (EDT) Temp. Windchill Dew Point Humidity Pressure Visibility Wind Dir Wind Speed Gust Speed Precip Events Conditions
12:10 AM 28.4 °F 23.3 °F 19.4 °F 69% 29.90 in 10.0 mi NNE 4.6 mph - N/A   Clear
12:30 AM 28.4 °F 24.6 °F 17.6 °F 64% 29.89 in 10.0 mi NE 3.5 mph - N/A   Clear
12:50 AM 28.4 °F 24.6 °F 17.6 °F 64% 29.90 in 10.0 mi ESE 3.5 mph - N/A   Clear
1:10 AM 28.4 °F 24.6 °F 17.6 °F 64% 29.86 in 10.0 mi ENE 3.5 mph - N/A   Clear
1:30 AM 26.6 °F 22.6 °F 19.4 °F 74% 29.87 in 10.0 mi East 3.5 mph - N/A   Clear
1:50 AM 26.6 °F 22.6 °F 19.4 °F 74% 29.87 in 10.0 mi East 3.5 mph - N/A   Clear
2:10 AM 26.6 °F 21.2 °F 17.6 °F 69% 29.87 in 10.0 mi East 4.6 mph - N/A   Clear
2:30 AM 24.8 °F 19.1 °F 19.4 °F 80% 29.87 in 10.0 mi ESE 4.6 mph - N/A   Clear
2:50 AM 26.6 °F 18.2 °F 19.4 °F 74% 29.86 in 10.0 mi East 8.1 mph - N/A   Clear
3:15 AM 26.6 °F 19.1 °F 19.4 °F 74% 29.85 in 10.0 mi East 6.9 mph - N/A   Clear
3:35 AM 26.6 °F 17.5 °F 19.4 °F 74% 29.85 in 10.0 mi ESE 9.2 mph - N/A   Clear
3:55 AM 24.8 °F 16.1 °F 17.6 °F 74% 29.85 in 10.0 mi ESE 8.1 mph - N/A   Clear
4:15 AM 24.8 °F 15.3 °F 19.4 °F 80% 29.86 in 10.0 mi SE 9.2 mph - N/A   Clear
4:35 AM 26.6 °F 18.2 °F 17.6 °F 69% 29.87 in 10.0 mi SSE 8.1 mph - N/A   Clear
4:55 AM 26.6 °F 16.8 °F 19.4 °F 74% 29.85 in 10.0 mi SE 10.4 mph - N/A   Clear
5:15 AM 26.6 °F 17.5 °F 19.4 °F 74% 29.84 in 10.0 mi SE 9.2 mph - N/A   Clear
5:35 AM 26.6 °F 18.2 °F 19.4 °F 74% 29.84 in 10.0 mi ESE 8.1 mph - N/A   Clear
5:55 AM 26.6 °F 17.5 °F 19.4 °F 74% 29.82 in 10.0 mi ESE 9.2 mph - N/A   Clear
6:15 AM 24.8 °F 16.1 °F 19.4 °F 80% 29.83 in 10.0 mi SE 8.1 mph - N/A   Clear
6:35 AM 26.6 °F 17.5 °F 17.6 °F 69% 29.83 in 10.0 mi ESE 9.2 mph - N/A   Clear
6:55 AM 24.8 °F 15.3 °F 17.6 °F 74% 29.83 in 10.0 mi ESE 9.2 mph - N/A   Clear
7:15 AM 24.8 °F 13.4 °F 17.6 °F 74% 29.83 in 10.0 mi SE 12.7 mph - N/A   Clear
7:35 AM 24.8 °F 13.4 °F 19.4 °F 80% 29.83 in 10.0 mi ESE 12.7 mph - N/A   Clear
7:55 AM 24.8 °F 13.4 °F 19.4 °F 80% 29.83 in 10.0 mi SE 12.7 mph - N/A   Clear
8:15 AM 24.8 °F 11.5 °F 19.4 °F 80% 29.81 in 10.0 mi ESE 17.3 mph - N/A   Clear
8:35 AM 26.6 °F 13.8 °F 19.4 °F 74% 29.80 in 10.0 mi SE 17.3 mph - N/A   Clear
8:55 AM 26.6 °F 14.3 °F 17.6 °F 69% 29.79 in 10.0 mi ESE 16.1 mph - N/A   Clear
9:15 AM 26.6 °F 13.4 °F 17.6 °F 69% 29.79 in 10.0 mi ESE 18.4 mph - N/A   Clear
9:35 AM 26.6 °F 13.8 °F 17.6 °F 69% 29.77 in 10.0 mi ESE 17.3 mph - N/A   Clear
9:55 AM 28.4 °F 15.8 °F 17.6 °F 64% 29.76 in 10.0 mi SE 18.4 mph - N/A   Clear
10:15 AM 28.4 °F 17.0 °F 17.6 °F 64% 29.76 in 10.0 mi ESE 15.0 mph 20.7 mph N/A   Clear
10:35 AM 28.4 °F 16.6 °F 17.6 °F 64% 29.74 in 10.0 mi ESE 16.1 mph - N/A   Clear
10:55 AM 28.4 °F 16.2 °F 17.6 °F 64% 29.72 in 10.0 mi ESE 17.3 mph - N/A   Clear
11:15 AM 28.4 °F 15.1 °F 17.6 °F 64% 29.72 in 10.0 mi SE 20.7 mph - N/A   Clear
11:35 AM 28.4 °F 15.4 °F 17.6 °F 64% 29.72 in 10.0 mi SE 19.6 mph - N/A   Clear
11:55 AM 28.4 °F 15.4 °F 17.6 °F 64% 29.71 in 10.0 mi ESE 19.6 mph 24.2 mph N/A   Clear
12:15 PM 28.4 °F 16.6 °F 17.6 °F 64% 29.69 in 10.0 mi SE 16.1 mph - N/A   Clear
12:35 PM 28.4 °F 16.6 °F 15.8 °F 59% 29.67 in 10.0 mi ESE 16.1 mph 23.0 mph N/A   Clear
12:55 PM 28.4 °F 15.4 °F 15.8 °F 59% 29.66 in 10.0 mi SE 19.6 mph 25.3 mph N/A   Clear
1:15 PM 28.4 °F 14.7 °F 17.6 °F 64% 29.64 in 10.0 mi ESE 21.9 mph 28.8 mph N/A   Clear
1:35 PM 28.4 °F 15.4 °F 19.4 °F 69% 29.63 in 10.0 mi ESE 19.6 mph 26.5 mph N/A   Mostly Cloudy
1:55 PM 30.2 °F 18.5 °F 19.4 °F 64% 29.62 in 10.0 mi SE 17.3 mph 25.3 mph N/A   Overcast
2:15 PM 30.2 °F 18.5 °F 19.4 °F 64% 29.62 in 10.0 mi ESE 17.3 mph 25.3 mph N/A   Overcast
2:35 PM 30.2 °F 18.5 °F 19.4 °F 64% 29.61 in 10.0 mi SE 17.3 mph 21.9 mph N/A   Overcast
2:55 PM 28.4 °F 16.6 °F 19.4 °F 69% 29.61 in 10.0 mi SE 16.1 mph 24.2 mph N/A   Overcast
3:15 PM 30.2 °F 18.1 °F 19.4 °F 64% 29.60 in 10.0 mi ESE 18.4 mph 21.9 mph N/A   Overcast
3:35 PM 30.2 °F 18.9 °F 21.2 °F 69% 29.59 in 10.0 mi SE 16.1 mph 20.7 mph N/A   Overcast
3:55 PM 30.2 °F 18.9 °F 21.2 °F 69% 29.60 in 10.0 mi ESE 16.1 mph 21.9 mph N/A   Overcast
4:15 PM 28.4 °F 17.5 °F 24.8 °F 86% 29.59 in 0.8 mi SE 13.8 mph - N/A   Overcast
4:35 PM 26.6 °F 15.7 °F 26.6 °F 100% 29.58 in 0.8 mi ESE 12.7 mph - N/A   Overcast
4:55 PM 26.6 °F 13.8 °F 26.6 °F 100% 29.57 in 0.8 mi ESE 17.3 mph - N/A   Overcast
5:15 PM 26.6 °F 15.7 °F 26.6 °F 100% 29.56 in 1.0 mi ESE 12.7 mph 18.4 mph N/A   Overcast
5:35 PM 26.6 °F 16.2 °F 26.6 °F 100% 29.56 in 1.2 mi ESE 11.5 mph - N/A   Overcast
5:55 PM 26.6 °F 15.2 °F 26.6 °F 100% 29.55 in 1.0 mi ESE 13.8 mph - N/A   Overcast
6:15 PM 26.6 °F 14.3 °F 26.6 °F 100% 29.55 in 0.5 mi ESE 16.1 mph - N/A Fog Light Freezing Fog
6:35 PM 26.6 °F 15.2 °F 26.6 °F 100% 29.54 in 0.8 mi ESE 13.8 mph - N/A   Overcast
6:55 PM 26.6 °F 15.2 °F 26.6 °F 100% 29.54 in 0.8 mi ESE 13.8 mph 20.7 mph N/A   Overcast
7:15 PM 26.6 °F 14.3 °F 26.6 °F 100% 29.53 in 1.0 mi ESE 16.1 mph 21.9 mph N/A   Overcast
7:35 PM 26.6 °F 14.3 °F 26.6 °F 100% 29.53 in 1.8 mi ESE 16.1 mph 23.0 mph N/A   Overcast
7:55 PM 26.6 °F 13.1 °F 26.6 °F 100% 29.52 in 2.5 mi ESE 19.6 mph - N/A   Overcast
8:15 PM 26.6 °F 13.4 °F 26.6 °F 100% 29.51 in 3.0 mi ESE 18.4 mph 26.5 mph N/A   Overcast
8:35 PM 26.6 °F 13.4 °F 26.6 °F 100% 29.50 in 3.0 mi ESE 18.4 mph 25.3 mph N/A   Overcast
8:55 PM 26.6 °F 12.7 °F 26.6 °F 100% 29.50 in 4.0 mi ESE 20.7 mph 26.5 mph N/A   Overcast
9:15 PM 26.6 °F 12.7 °F 26.6 °F 100% 29.50 in 3.0 mi ESE 20.7 mph 27.6 mph N/A   Overcast
9:55 PM 26.6 °F 12.4 °F 26.6 °F 100% 29.49 in 2.0 mi ESE 21.9 mph 29.9 mph N/A   Overcast
10:15 PM 26.6 °F 12.0 °F 26.6 °F 100% 29.48 in 2.0 mi ESE 23.0 mph 34.5 mph N/A   Overcast
10:35 PM 26.6 °F 11.1 °F 26.6 °F 100% 29.47 in 2.0 mi ESE 26.5 mph 34.5 mph N/A   Overcast
10:55 PM 26.6 °F 12.0 °F 26.6 °F 100% 29.46 in 1.5 mi ESE 23.0 mph 38.0 mph N/A   Overcast
11:15 PM 26.6 °F 11.4 °F 26.6 °F 100% 29.44 in 1.5 mi ESE 25.3 mph 33.4 mph N/A   Overcast
11:35 PM 26.6 °F 10.8 °F 26.6 °F 100% 29.44 in 1.2 mi ESE 27.6 mph 35.7 mph N/A   Overcast
11:55 PM 26.6 °F 11.1 °F 26.6 °F 100% 29.44 in 1.5 mi ESE 26.5 mph 33.4 mph N/A   Overcast